Regional Weather Roundup
Issued by NWS

Home | Current Version | Previous Version | Graphics & Text | Print | Product List | Glossary On
Versions: 1 2 3 4 5 6 7 8 9 10 11 12 13 14 15 16 17 18 19 20 21 22 23 24 25 26 27 28 29 30 31 32 33 34 35 36 37 38 39 40 41 42 43 44 45 46 47 48 49 50
000
ASUS43 KBIS 192310
RWRND

NORTH DAKOTA REGIONAL WEATHER ROUNDUP
NATIONAL WEATHER SERVICE BISMARCK ND
500 PM CST FRI DEC 19 2014

NOTE: "FAIR" INDICATES FEW OR NO CLOUDS BELOW 12,000 FEET WITH NO
SIGNIFICANT WEATHER AND/OR OBSTRUCTIONS TO VISIBILITY.


NDZ001>003-009>011-017-200000-
NORTHWEST NORTH DAKOTA

CITY           SKY/WX    TMP DP  RH WIND       PRES   REMARKS
WILLISTON      FOG       26  24  92 N3        29.91S VSB 1/4
MINOT          CLOUDY    27  25  92 CALM      29.94R FOG
MINOT AFB      CLOUDY    26  26 100 W2        29.94R FOG
$$

NDZ018>021-031>035-040>046-200000-
SOUTHWEST NORTH DAKOTA

CITY           SKY/WX    TMP DP  RH WIND       PRES   REMARKS
BISMARCK       CLEAR     33  26  75 NE5       29.94R
DICKINSON      CLEAR     38  26  62 W3        29.87S
GARRISON         N/A     28  27  96 CALM      29.93R
HETTINGER ARPT CLEAR     40  27  59 CALM      29.91S
$$

NDZ004>008-012>016-024-026-027-054-200000-
NORTHEAST NORTH DAKOTA

CITY           SKY/WX    TMP DP  RH WIND       PRES   REMARKS
GRAND FORKS    CLOUDY    29  28  96 S7        30.02R FOG
GRND FRKS AFB  CLOUDY    28  28 100 S5        30.02R FOG
DEVILS LAKE    CLOUDY    27  19  74 CALM      29.95R
$$

NDZ022-023-025-028>030-036>039-047>053-200000-
SOUTHEAST NORTH DAKOTA

CITY           SKY/WX    TMP DP  RH WIND       PRES   REMARKS
FARGO          LGT SNOW  31  28  89 S15       30.03R FOG
JAMESTOWN      PTCLDY    27  25  92 S6        29.95R
$$




USA.gov is the U.S. government's official web portal to all federal, state and local government web resources and services.